Location: San Gennaro Vesuviano
(40.8833°N, 14.5333°E)
Time: 11:23:57
(UTC+00:00)

Cosmos 2221 - Pass Details

Date: 22 April 2021
Orbit: 593 x 615 km, 82.5° (Epoch: 10 May)

Event Time Altitude Azimuth Distance (km) Brightness Sun altitude
Exits shadow 20:05:05 18° 48° (NE) 1,461 4.4 -23.0°
Drops below altitude 10° 20:06:39 10° 32° (NNE) 1,937 5.2 -23.2°
Sets 20:09:06 0° 20° (NNE) 2,847 6.3 -23.6°
